Location: Eurasberg
(48.3353°N, 11.0839°E)
Time: 14:03:53
(UTC+00:00)

Timation 1 Rocket - Pass Details

Date: 22 April 2026
Orbit: 895 x 908 km, 70.0° (Epoch: 14 May)

Event Time Altitude Azimuth Distance (km) Brightness Sun altitude
Exits shadow 01:23:15 18° 280° (W) 2,066 6.0 -23.1°
Maximum altitude 01:26:05 25° 319° (NW) 1,738 5.9 -22.8°
Drops below altitude 10° 01:31:01 10° 14° (NNE) 2,604 7.7 -22.4°
Sets 01:34:00 0° 27° (NNE) 3,548 8.9 -22.1°
